Location: Rounton
(54.4000°N, 1.3500°W)
Time: 03:04:33
(UTC+00:00)

A-11 Canister half - Pass Details

Date: 29 November 2021
Orbit: 1524 x 1684 km, 47.3° (Epoch: 19 January)

Event Time Altitude Azimuth Distance (km) Brightness Sun altitude
Exits shadow 07:02:09 - 270° (W) 4,456 10.9 -8.0°
Reaches altitude 10° 07:03:57 10° 268° (W) 3,913 10.6 -7.8°
Maximum altitude 07:13:28 52° 196° (SSW) 1,946 9.7 -6.5°
Drops below altitude 10° 07:22:42 10° 124° (SE) 3,789 13.0 -5.4°
Sets 07:25:49 0° 120° (ESE) 4,752 14.7 -5.0°
